FENGYUN 1C DEB, 30717

Orbit data source: Space-Track

FENGYUN 1C DEB, 30717 is space debris in SSO originally from a launch on Mon, 10 May 1999 UTC launched from the Taiyaun Space Center, China (TSC). Fengyun 1C debris stems from the Chinese weather satellite Fengyun-1C, which was intentionally destroyed by a Chinese anti-satellite missile in 2007. This event dramatically increased the amount of space debris, with thousands of trackable fragments posing hazards to satellites and human spaceflight. The Fengyun 1C debris cloud has become a focal point in discussions about space sustainability and the need for international regulations to prevent the creation of new debris.

Loading next visibility...
Identifier
30717, 1999-025ASB
Orbit
SSO
Country
Flag of CNCN / PRC
Related business
Manufacturer
Unknown
Mission
Spacecraft
Bus & Motor
Unknown
Mass
Unknown
Launch date (UTC)
1999-05-10 (27 years ago)
Launch vehicle
Unknown
Launch site
Taiyaun Space Center, China (TSC)
Object type
Payload
Rocket body
Debris
Shape & HBR
Unknown shape, 0.1 m
Radar Cross Section
Small (<0.1 m²)

Expand to show TLE details & history
Last TLE update: 17 hours ago

TLE from 17 hours ago
0 FENGYUN 1C DEB
1 30717U 99025ASB 26062.19746127  .00003182  00000-0  14698-2 0  9990
2 30717  99.0085 139.5437 0045573  31.8682 328.5237 14.21113041976791
Epoch: 2026-03-03T04:44Z
TLE epoch observation values (Epoch: 2026-03-03T04:44:20.653Z)
Latitude
-0.00003°
Longitude
-92.52232°
Altitude
796.549 km
Speed
7.47 km/s
True Right ascension
09h 18m 10s
True Declination
0° 00' 00"
Sunlit
Object was in full shadow at epoch
Visualization orbit readout
Latitude
Unknown
Longitude
Unknown
Altitude
Unknown
Speed
Unknown
Apparent Right ascension
Unknown
Apparent Declination
Unknown
Sunlit
N/A
Visualization observer readout
Local Sidereal Time
01:12:32
Azimuth
Unknown
Elevation
Unknown
Doppler factor
Unknown
Orbital elements
Apogee altitude
851.561 km
Perigee altitude
785.964 km
Semi-major axis
7,196.9 km
Eccentricity
0.00456
Inclination
99.0085°
RAAN
139.5437°
Arg. of periapsis
31.8682°
True anomaly
328.24969°
Mean anomaly
328.5237°
Eccentric anomaly
328.38683°
Mean motion
3.55488 °/min
Orbital period
101.27 mins
BSTAR
0.0014698
Loading maneuver chart data...
Computing Atmospheric mass density...

Documentation

Showing up to 5 results
|